Regional Weather Roundup
Issued by NWS

Home | Current Version | Previous Version | Text Only | Print | Product List | Glossary Off
Versions: 1 2 3 4 5 6 7 8 9 10 11 12 13 14 15 16 17 18 19 20 21 22 23 24 25 26 27 28 29 30 31 32 33 34 35 36 37 38 39 40 41 42 43 44 45 46 47 48 49 50

000
ASUS45 KSLC 271810
RWRUT

UTAH REGIONAL WEATHER ROUNDUP
NATIONAL WEATHER SERVICE SALT LAKE CITY UT
1100 AM MST THU NOV 27 2014

UTZ001>011-023>025-271900-

NORTHERN UTAH

CITY           SKY/WX    TMP DP  RH WIND       PRES   REMARKS
BRIGHAM CITY   CLOUDY    48  33  55 CALM      30.31S
HILL AFB       CLOUDY    49  26  41 SE5       30.30F
LOGAN          MOSUNNY   45  31  58 CALM      30.30S
OGDEN          CLOUDY    48  28  46 SE3       30.30S
PROVO AIRPORT  CLOUDY    39  30  70 CALM      30.36F
SALT LAKE CITY CLOUDY    52  25  35 SE9       30.29S
VERNAL         MOSUNNY   46  25  43 CALM      30.40F
WENDOVER       CLOUDY    43  30  61 CALM      30.30S
HEBER CITY     PTSUNNY   36  30  80 CALM      30.37F
WEST JORDAN    SUNNY     52  30  43 S17       30.30F

$$

UTZ012>022-026-027-271900-

SOUTHERN/CENTRAL UTAH

CITY           SKY/WX    TMP DP  RH WIND       PRES   REMARKS
BLANDING       SUNNY     44  24  44 S6        30.54F
BRYCE CANYON   SUNNY     50  14  23 SE7       30.49F
CEDAR CITY     MOSUNNY   55  18  23 CALM      30.38F
DELTA          CLOUDY    45  26  49 E3        30.36S
MILFORD        NOT AVBL
MOAB/CYNLANDS  SUNNY     48  25  40 SE7       30.43F
PRICE          SUNNY     43  25  49 CALM      30.44F
ST GEORGE      MOCLDY    46  19  34 CALM      30.40F
KANAB          SUNNY     55  19  24 S6        30.44F

$$

REGIONAL REPORTS     COLORADO/ARIZONA

CITY           SKY/WX    TMP DP  RH WIND       PRES   REMARKS
CRAIG, CO      CLOUDY    40  28  62 CALM      30.38F
GRAND JUNCTION SUNNY     43  27  53 NW3       30.45F
RIFLE          MOSUNNY   34  26  72 CALM      30.47F
MONTROSE       SUNNY     45  24  43 W3        30.47F
CORTEZ         SUNNY     47  19  33 S3        30.46F
PAGE, AZ       MOSUNNY   48  18  30 CALM      30.44F
GRAND CANYON   SUNNY     61  11  14 SE7       30.46F
KINGMAN        SUNNY     64  17  16 N5        30.32S
FLAGSTAFF      SUNNY     55  15  20 E7        30.48F

$$

REGIONAL REPORTS    NEVADA/IDAHO/WYOMING

CITY           SKY/WX    TMP DP  RH WIND       PRES   REMARKS
LAS VEGAS, NV  PTSUNNY   61  18  18 CALM      30.27F
ELY            CLOUDY    48  19  31 E3        30.38F
ELKO           CLOUDY    43  31  62 CALM      30.30F
POCATELLO, ID  MOSUNNY   55  29  36 SW16      30.23S
BURLEY         PTSUNNY   56  34  43 SW8       30.22F
EVANSTON, WY   MOSUNNY   49  21  33 S12       30.35S
ROCK SPRINGS   CLOUDY    41  22  46 W8        30.32S

$$



USA.gov is the U.S. government's official web portal to all federal, state and local government web resources and services.